User: anonymous   Login
Location: Unspecified
(0.0000°N, 0.0000°E)
Time: 18:25:53
(UTC+00:00)
Language:

NOAA 9 - Orbit

View from above orbital plane
View from above orbital plane
View from above satellite
View from above satellite

Ground track
Ground track

The orbit data is extracted from the following two-line orbital elements,

1 15427U 84123A   17080.51495352 +.00000002 +00000-0 +23334-4 0  9998
2 15427 098.7949 025.5546 0014247 206.8997 284.0520 14.15991814665969
Epoch (UTC): 21 March 2017 12:21:31
Eccentricity: 0.0014247
inclination: 98.7949°
perigee height: 828 km
apogee height: 849 km
right ascension of ascending node: 25.5546°
argument of perigee: 206.8997°
revolutions per day: 14.15991814
mean anomaly at epoch: 284.0520°
orbit number at epoch: 66596

The dashed part of the orbit path shows where the satellite is in the earth's shadow,  

DLR